Zurück zum Katalog

USA 238

AktivMilitärLEO
NORAD 38758·PAYLOAD·🇺🇸 United States

Gestartet Sep 13, 2012 von Vandenberg Space Force Base

Loading…

Nächste Überflüge (nächste 24 Stunden)

TLE

VeraltetSource: Mike McCants

Epoche: Jul 20, 2026, 20:53 UTC

1 38758U 12048A   26201.87058179 0.00000000  00000-0  00000-0 0    05
2 38758  63.4236 122.9872 0316039 357.8416   2.1584 13.41005482    02

Verfolge USA 238 in Echtzeit mit AllMySat

Download on the App Store